Home > Weather > Sarpsborg > Past weeks

Flag for Norway Past Weather in Sarpsborg, Norway — Yesterday and Last 2 Weeks

Now
63 °F

Low clouds.


Feels Like: 63 °F
Forecast: 60 / 70 °F
Wind: 6 mph from South

Location: Rygge

Current Time: Aug 25, 2016 at 6:53:29 AM

Latest Report: Aug 25, 2016 at 5:50 AM


Visibility: 6 mi

Pressure: 30.09 "Hg

Humidity: 100%

Dew Point: 63 °F

Location of SarpsborgLocation

Past Weather in Sarpsborg — Graph

°F

Sarpsborg Temperature Yesterday

Maximum temperature yesterday: 64 °F (at 11:50 AM)
Minimum temperature yesterday: 55 °F (at 2:50 AM)
Average temperature yesterday: 61 °F

High & Low Weather Summary for the Past Weeks

 TemperatureHumidityPressure
High73 °F (Aug 16, 5:50 PM)100% (Aug 12, 5:20 PM)30.27 "Hg (Aug 12, 5:20 PM)
Low45 °F (Aug 11, 5:50 AM)38% (Aug 16, 6:20 PM)29.62 "Hg (Aug 10, 5:20 AM)
Average60 °F76%29.98 "Hg
* Reported Aug 10 5:20 AM — Aug 25 5:50 AM, Sarpsborg, Weather by CustomWeather, © 2016

Note: Actual official high and low records may vary slightly from our data, if they occured in-between our weather recording intervals... More about our weather records

Advertising

Sarpsborg Weather History for the Previous 24 Hours

Scroll right to see more
 ConditionsComfort  
Time TempWeatherWind HumidityBarometerVisibility
5:50 AM
Thu, Aug 25
63 °FLow clouds.6 mph100%30.09 "Hg6 mi
5:20 AM63 °FMostly cloudy.5 mph94%30.09 "Hg6 mi
4:50 AM63 °FPassing clouds.7 mph94%30.12 "Hg6 mi
4:20 AM63 °FPassing clouds.7 mph94%30.12 "Hg6 mi
3:50 AM63 °FPartly cloudy.7 mph94%30.12 "HgN/A
3:20 AM63 °FPassing clouds.7 mph94%30.12 "HgN/A
2:50 AM63 °FPassing clouds.8 mph94%30.12 "Hg6 mi
2:20 AM63 °FMostly cloudy.6 mph100%30.15 "Hg6 mi
1:50 AM63 °FMostly cloudy.7 mph100%30.15 "Hg5 mi
1:20 AM64 °FPassing clouds.9 mph94%30.15 "Hg6 mi
12:50 AM64 °FPartly cloudy.9 mph94%30.15 "HgN/A
12:20 AM63 °FPassing clouds.10 mph100%30.15 "Hg6 mi
11:50 PM
Wed, Aug 24
63 °FPassing clouds.9 mph100%30.15 "HgN/A
11:20 PM63 °FPassing clouds.10 mph94%30.18 "HgN/A
10:50 PM63 °FPassing clouds.10 mph94%30.18 "HgN/A
10:20 PM63 °FPassing clouds.10 mph94%30.18 "HgN/A
9:50 PM63 °FPassing clouds.10 mph94%30.18 "HgN/A
9:20 PM63 °FPartly sunny.8 mph94%30.18 "HgN/A
8:50 PM63 °FPartly sunny.8 mph94%30.18 "HgN/A
8:20 PM63 °FPartly sunny.8 mph88%30.18 "HgN/A
7:50 PM63 °FPartly sunny.9 mph88%30.18 "HgN/A
7:20 PM63 °FPartly sunny.8 mph88%30.18 "HgN/A
6:50 PM63 °FOvercast.8 mph83%30.21 "HgN/A
6:20 PM61 °FOvercast.10 mph88%30.21 "HgN/A
5:50 PM63 °FOvercast.13 mph83%30.21 "HgN/A
5:20 PM63 °FOvercast.13 mph83%30.21 "HgN/A
4:50 PM63 °FPartly sunny.14 mph83%30.21 "HgN/A
4:20 PM61 °FPartly sunny.12 mph94%30.24 "HgN/A
3:50 PM61 °FPartly sunny.10 mph94%30.24 "HgN/A
3:20 PM61 °FPartly sunny.13 mph88%30.24 "HgN/A
2:50 PM63 °FBroken clouds.12 mph83%30.24 "HgN/A
2:20 PM61 °FPartly sunny.10 mph94%30.24 "HgN/A
1:50 PM61 °FPartly sunny.12 mph88%30.24 "HgN/A
1:20 PM63 °FBroken clouds.13 mph77%30.24 "HgN/A
12:50 PM63 °FPartly sunny.10 mph77%30.24 "HgN/A
12:20 PM64 °FPartly sunny.14 mph73%30.27 "HgN/A
11:50 AM64 °FPartly sunny.14 mph73%30.27 "HgN/A
11:20 AM63 °FBroken clouds.12 mph83%30.27 "HgN/A
10:50 AM63 °FBroken clouds.8 mph83%30.27 "HgN/A
10:20 AM63 °FPartly sunny.9 mph77%30.27 "HgN/A
9:50 AM63 °FPartly sunny.9 mph77%30.27 "HgN/A
9:20 AM61 °FPartly sunny.7 mph83%30.27 "HgN/A
8:50 AM61 °FPartly sunny.7 mph83%30.27 "HgN/A
8:20 AM61 °FPartly sunny.8 mph83%30.27 "HgN/A
7:50 AM59 °FPartly sunny.6 mph88%30.27 "HgN/A
7:20 AM59 °FPartly sunny.6 mph88%30.27 "HgN/A
6:50 AM59 °FPassing clouds.6 mph88%30.24 "HgN/A
6:20 AM59 °FPassing clouds.5 mph88%30.24 "HgN/A
Weather by CustomWeather, © 2016

See weather overviewHow to use our weather pages